Content
SEND FEEDBACK

Daily
Averages
Monthly
Summary
New Caledonia

NOUVILLE, NEW CALEDONIA


Home > Oceania > New Caledonia
Elevation: 236 feet     Latitude: 22 16S     Longitude: 166 27E

WEATHER
 
SELECT A DAY
Number of Records: 175,753;   Date Range: 9/1/96 - 4/21/13
 
SHARE

PRINT THIS DATA

[ ← Previous Day ]
WEATHER ALMANAC - JANUARY 23, 2013
[ Next Day → ]
[ °C ]   °F
Weather ElementAverageHighLow
Temperature79.4 °F87.8 °F (2:00 pm)68 °F (4:00 am)
Dewpoint67.5 °F73.4 °F (11:30 am)62.6 °F (1:30 am)
Humidity67 %88 % (4:00 am)43 % (5:00 pm)
Barometer29.86 in29.89 in (6:00 am)29.80 in (4:00 pm)
Wind Speed3.9 mph10.4 mph (1:00 pm)
Weather ElementAverage
Visibility8.6 mi
Wind DirectionENE (54.1 °)

Weather ElementTotal
Precipitation---
Cooling Degree Days12.9 (Base 65)
Growing Degree Days27.9 (Base 50)
Averaged from 51 records on January 23, 2013
WEATHER CONDITIONS BREAKOUT
WIND DIRECTION BREAKOUT
WEATHER BY HOUR - JANUARY 23, 2013
[ °C ]   °F
Local TimeTemperatureDewpointHumidityBarometerVisibilityWind DirectionWind SpeedGust SpeedPrecipitationEventsConditions
12:30 AM71.6 °F64.4 °F78 %29.86 in6.2 miNE (40°)3.5 mph
1:00 AM71.6 °F64.4 °F78 %29.86 in6.2 miVariable2.3 mph
1:30 AM73.4 °F62.6 °F69 %29.86 in6.2 miVariable3.5 mph
2:00 AM71.6 °F62.6 °F73 %29.86 in6.2 miCalm
2:30 AM69.8 °F62.6 °F78 %29.83 in6.2 miVariable1.2 mph
3:00 AM69.8 °F62.6 °F78 %29.83 in6.2 miSSE (150°)2.3 mph
3:30 AM71.6 °F62.6 °F73 %29.83 in6.2 miCalm
4:00 AM68.0 °F64.4 °F88 %29.83 in6.2 miVariable1.2 mph
4:30 AM69.8 °F64.4 °F83 %29.83 in6.2 miVariable2.3 mph
5:00 AM70.0 °F64.0 °F75 %29.86 in34.0 miSouth (180°)1.2 mphClear
5:00 AM69.8 °F64.4 °F83 %29.86 in6.2 miSouth (180°)1.2 mphMostly Cloudy
5:30 AM71.6 °F64.4 °F78 %29.86 in6.2 miCalmOvercast
6:00 AM73.4 °F66.2 °F78 %29.89 in6.2 miNNE (20°)4.6 mphOvercast
6:30 AM75.2 °F66.2 °F73 %29.89 in6.2 miNorth (10°)4.6 mphOvercast
7:00 AM75.2 °F68.0 °F78 %29.89 in6.2 miNNE (30°)4.6 mphMostly Cloudy
7:30 AM77.0 °F68.0 °F74 %29.89 in6.2 miNorth (10°)5.8 mphOvercast
8:00 AM77.0 °F68.0 °F74 %29.89 in6.2 miVariable3.5 mphOvercast
8:30 AM80.6 °F68.0 °F65 %29.89 in6.2 miSSE (150°)4.6 mphOvercast
9:00 AM80.6 °F68.0 °F65 %29.89 in6.2 miVariable3.5 mphMostly Cloudy
9:30 AM82.4 °F68.0 °F62 %29.89 in6.2 miVariable3.5 mphMostly Cloudy
10:00 AM84.2 °F68.0 °F58 %29.89 in6.2 miNNW (340°)3.5 mphMostly Cloudy
10:30 AM86.0 °F68.0 °F55 %29.89 in6.2 miNNE (30°)6.9 mphMostly Cloudy
11:00 AM86.0 °F71.0 °F52 %29.89 in37.0 miNorth (10°)4.6 mphClear
11:00 AM86.0 °F71.6 °F62 %29.89 in6.2 miVariable4.6 mphOvercast
11:30 AM82.4 °F73.4 °F74 %29.89 in6.2 miSouth (190°)6.9 mphMostly Cloudy
12:00 PM84.2 °F73.4 °F70 %29.86 in6.2 miSW (230°)5.8 mphOvercast
12:30 PM86.0 °F69.8 °F58 %29.86 in6.2 miVariable5.8 mphMostly Cloudy
1:00 PM86.0 °F68.0 °F55 %29.86 in6.2 miNE (40°)10.4 mphOvercast
1:30 PM86.0 °F68.0 °F55 %29.86 in6.2 miNNE (30°)6.9 mphOvercast
2:00 PM87.8 °F68.0 °F52 %29.83 in6.2 miNNE (30°)5.8 mphMostly Cloudy
2:30 PM86.0 °F66.2 °F51 %29.83 in6.2 miWest (270°)5.8 mphMostly Cloudy
3:00 PM86.0 °F66.2 °F51 %29.83 in6.2 miVariable3.5 mphOvercast
3:30 PM86.0 °F66.2 °F51 %29.83 in6.2 miNNW (340°)6.9 mphOvercast
4:00 PM86.0 °F66.2 °F51 %29.80 in6.2 miNNE (20°)8.1 mphOvercast
4:30 PM86.0 °F68.0 °F55 %29.80 in6.2 miNNE (20°)6.9 mph
5:00 PM86.0 °F67.0 °F43 %29.82 in37.0 miNNE (20°)8.1 mphClear
5:00 PM86.0 °F66.2 °F51 %29.80 in6.2 miNNE (20°)8.1 mphOvercast
5:30 PM86.0 °F69.8 °F58 %29.80 in6.2 miNNE (20°)6.9 mphMostly Cloudy
6:00 PM84.2 °F69.8 °F62 %29.83 in6.2 miVariable3.5 mphMostly Cloudy
6:30 PM84.2 °F68.0 °F58 %29.83 in6.2 miCalmOvercast
7:00 PM82.4 °F69.8 °F66 %29.86 in6.2 miVariable3.5 mph
7:30 PM82.4 °F69.8 °F66 %29.86 in6.2 miNNE (20°)3.5 mph
8:00 PM80.6 °F69.8 °F70 %29.86 in6.2 miVariable2.3 mph
8:30 PM80.6 °F69.8 °F70 %29.86 in6.2 miCalm
9:00 PM78.8 °F69.8 °F74 %29.89 in6.2 miCalm
9:30 PM78.8 °F69.8 °F74 %29.89 in6.2 miCalm
10:00 PM78.8 °F69.8 °F74 %29.89 in6.2 miVariable2.3 mph
10:30 PM77.0 °F69.8 °F78 %29.89 in6.2 miESE (120°)4.6 mph
11:00 PM77.0 °F69.0 °F70 %29.89 in37.0 miESE (120°)5.8 mphClear
11:00 PM77.0 °F69.8 °F78 %29.89 in6.2 miESE (120°)5.8 mph
11:30 PM77.0 °F68.0 °F74 %29.89 in6.2 miCalmPartly Cloudy
Hourly data recorded from NWWM, located miles away from Nouville, New Caledonia







STORIES FROM OUR PARTNERS